Flag for Brazil Weather past 2 weeks in Cuiabá, Mato Grosso, Brazil

Now
79 °F

Partly sunny.


Feels Like: 81 °F
Forecast: 74 / 85 °F
Wind: 9 mph from South

Location: Cuiaba Aeroporto


UV Index: 0 (Low)

Visibility: N/A


Pressure: 29.95 "Hg

Humidity: 70%

Dew point: 68 °F

Location of CuiabáLocation

Historic Weather in Cuiabá

°F

Cuiabá temperature yesterday

Maximum temperature yesterday: 88 °F (at 1:00 PM)
Minimum temperature yesterday: 70 °F (at 8:00 PM)
Average temperature yesterday: 77 °F

Past Weeks' High & Low Weather Summary

 TemperatureHumidityPressure
High93 °F (Apr 21, 1:00 PM)94% (Apr 12, 1:00 AM)30.04 "Hg (Apr 12, 1:00 AM)
Low68 °F (Apr 15, 1:00 AM)25% (Apr 22, 5:00 PM)29.80 "Hg (Apr 8, 3:00 PM)
Average78 °F80%29.91 "Hg
* Reported Apr 8 2:00 PM — Apr 23 2:00 PM, Cuiabá, Weather by CustomWeather, © 2014

Note: Actual official high and low records may vary slightly from our data, if they occured in-between our weather recording intervals... More about our weather records

Advertising

Historic Weather Conditions — Data for Previous 24 hours

 ConditionsComfort  
Time TempWeatherWind HumidityBarometerVisibility
2:00 PM
Apr 23
79 °FPartly sunny.9 mph70%29.95 "HgN/A
1:00 PM79 °FPartly sunny.13 mph74%29.98 "HgN/A
12:00 PM79 °FBroken clouds.8 mph74%29.98 "HgN/A
11:00 AM79 °FBroken clouds.2 mph74%29.98 "HgN/A
10:00 AM77 °FBroken clouds.No wind79%30.01 "HgN/A
9:00 AM73 °FLight rain. Broken clouds.2 mph89%30.01 "Hg5 mi
8:00 AM73 °FBroken clouds.3 mph89%30.01 "Hg6 mi
7:00 AM72 °FBroken clouds.3 mph88%29.98 "Hg6 mi
6:00 AM72 °FBroken clouds.3 mph88%29.98 "Hg4 mi
5:00 AM72 °FPartly cloudy.5 mph88%29.95 "HgN/A
4:00 AM72 °FPartly cloudy.7 mph88%29.95 "HgN/A
3:00 AM72 °FPartly cloudy.6 mph94%29.95 "HgN/A
2:00 AM72 °FPartly cloudy.5 mph88%29.98 "HgN/A
1:00 AM70 °FPartly cloudy.No wind94%29.95 "HgN/A
12:00 AM70 °FPartly cloudy.No wind94%29.98 "HgN/A
11:00 PM
Apr 22
70 °FLight rain. Partly cloudy.6 mph94%30.01 "Hg6 mi
10:00 PM70 °FLight rain. Partly cloudy.5 mph94%29.98 "Hg4 mi
9:00 PM70 °FLight rain. Partly cloudy.No wind94%29.98 "Hg4 mi
8:00 PM70 °FMixture of precip. Partly cloudy.3 mph94%N/A4 mi
7:00 PM72 °FMixture of precip. Passing clouds.8 mph88%29.95 "Hg3 mi
6:00 PM72 °FLight rain. Mostly cloudy.8 mph88%29.89 "HgN/A
5:00 PM73 °FThunderstorms. Partly sunny.7 mph25%N/AN/A
4:00 PM73 °FThunderstorms. Partly sunny.1 mph89%N/A2 mi
3:00 PM79 °FScattered showers. Partly sunny.13 mph74%N/AN/A
2:00 PM86 °FPartly sunny.5 mph66%29.83 "HgN/A
Weather by CustomWeather, © 2014

See weather overview